Voltar ao catálogo

COSMOS 872

AtivoMilitarLEO
NORAD 9589·PAYLOAD·🇷🇺 Russia

Lançado Dec 7, 1976 de Plesetsk Cosmodrome

Loading…

Próximas Passagens (próximas 24 horas)

TLE

AtualizadoSource: Space-Track

Época: Sep 14, 2026, 15:37 UTC

1 09589U 76118B   26257.65087108 -.00000014  00000-0  14017-4 0  9994
2 09589  74.0304 204.0674 0040961  73.6966  98.3336 12.58111336285751

Acompanhe COSMOS 872 em tempo real com AllMySat

Download on the App Store